THOR 7

Last updated on Nov. 22, 2019, 4:19 a.m. UTC

1 40613U 15022A   19325.66231403 -.00000011  00000-0  00000+0 0  9991
2 40613   0.0164 109.4280 0002511 130.4827  58.2320  1.00269692 16759
UTC
Height (km)
Latitude
Longitude
Inclination
Orbital Period
UTC large
Height (km)
Speed (km/s)
/
Latitude / Longitude
Inclination (degrees)
Orbital Period (minutes)
Azimuth
Elevation
Range (km)
Doppler Factor
iOS Compass Heading
iOS Angle

Next 30 passes for location: Hong Kong

Rise time Rise Azimuth (degrees) Set time Set Azimuth (degrees) Duration Max altitude (degrees)

No matching passes for this satellites